DELTA 1 DEB

Satellite information

Favourite Embed

Satellite Type and Status

DEBRISIN ORBIT

Key statistics

Satellite DELTA 1 DEB at a glance.

Uptime

17231

Days in orbit

Revolutions

≈ 13.6

Per day

Orbit

SSO

Sun Synchronous Orbit

Inclination

98.8

Latest

Satellite identification and parameters

Extended collection of information and parameters for DELTA 1 DEB.

Object identification

Identified? True

Debris? True

Object name: DELTA 1 DEB

International designator: 1978-026GA

Object number (NORAD): 14460

Object ID (CCSDS): 14460

Country: UNITED STATES OF AMERICA (US)

Current information (Y/N): Y

RCS size: SMALL

Orbital parameters

Period: 106.018 minutes

Inclination: 98.8047 deg

SMA: 7420.145 km

Apoapsis: 1232.097 km

Periapsis: 851.923 km

RAAN: 81.0422 deg

Eccentricy: 0.0256177

Argument of periapsis: 32.1704 deg

Mean anomaly: 356.9131 deg

Mean motion: 13.58263903 rev/day

Mean motion (dot): 0.00000378 rev/day2

B* drag term: 0.00046145 1/REarth

Two-line elements (TLE)

Creation date: May 6, 2025, 3:54 a.m.

Reference frame: TEME

Reference center: EARTH

Epoch: May 5, 2025, 8:04 p.m. UTC

TLE line 0: 0 DELTA 1 DEB

TLE line 1: 1 14460U 78026GA 25125.83671063 .00000378 00000-0 46145-3 0 9998

TLE line 2: 2 14460 98.8047 81.0422 0256177 32.1704 356.9131 13.58263903 82777

Live tracking on map

Real-time ground track for satellite DELTA 1 DEB.

In-orbit conjunctions

A list of the most updated potential collisions computed for object DELTA 1 DEB.

Target Orbit TCA Probability of collision Miss distance Type
FENGYUN 1C DEB SSO 2024-09-24 16:04:24 0.0002554456 253.0 (m) DEBRIS
SL-8 R/B LEO 2024-08-16 02:30:58 0.0001610469 271.0 (m) ROCKET BODY

Associated space launch

Earth observation satellite

DELTA 1 DEB was lifted into orbit during the mission ‘Delta 2910 | Landsat 3’, on board a Delta 2910 space rocket.

The launch took place on March 5, 1978, 5:54 p.m. from Space Launch Complex 2W.

For more information about the launch, click the button.

Launch to space Delta 2910 | Landsat 3
Delta 2910 | Landsat 3

Agency: N/A

Status: Launch Successful

Launch date: March 5, 1978, 5:54 p.m. UTC

Rocket: Delta 2910

Launch pad: Space Launch Complex 2W

Location: Vandenberg SFB, CA, USA

...

Latest news about this satellite

There are no fresh news available about this satellite. Check back as we update our databases every day.


Newsletter sign-up

Weekly statistics, charts and insights to help you stay on top of the space industry.